This is the latest recevied weather packets stored in our database for station/object DH0GMA. If no packets are shown the sender has not sent any weather packets the latest 1 day(s).
| Time | Temp. | Humidity | Pressure | Rain* | Wind** | Luminosity | Snow |
|---|---|---|---|---|---|---|---|
| 1778024188 | 10.56° C | 91% | 1008.2 hPa | 0 mm | 0.45 m/s, 185° | - | - |
| 1778023587 | 10.56° C | 90% | 1008.4 hPa | 0 mm | 0.45 m/s, 202° | - | - |
| 1778022987 | 10.56° C | 90% | 1008.4 hPa | 0 mm | 0.45 m/s, 204° | - | - |
| 1778022387 | 10.56° C | 89% | 1008.5 hPa | 0 mm | 0 m/s | - | - |
| 1778021787 | 10.56° C | 89% | 1008.5 hPa | 0 mm | 0.45 m/s, 200° | - | - |
| 1778021187 | 10.56° C | 88% | 1008.4 hPa | 0 mm | 0.45 m/s, 198° | - | - |
| 1778020587 | 11.11° C | 88% | 1008.6 hPa | 0 mm | 0.45 m/s, 194° | - | - |
| 1778019986 | 11.11° C | 87% | 1008.5 hPa | 0 mm | 0 m/s | - | - |
| 1778019386 | 11.11° C | 87% | 1008.4 hPa | 0 mm | 0.89 m/s, 183° | - | - |
| 1778018788 | 11.67° C | 86% | 1008.3 hPa | 0 mm | 0.45 m/s, 198° | - | - |
| 1778018188 | 11.67° C | 86% | 1008.4 hPa | 0 mm | 0.45 m/s, 198° | - | - |
| 1778017588 | 11.67° C | 87% | 1008.4 hPa | 0 mm | 0.45 m/s, 251° | - | - |
| 1778016988 | 12.22° C | 87% | 1008.3 hPa | 0 mm | 0.89 m/s, 168° | - | - |
| 1778016388 | 12.22° C | 86% | 1008.4 hPa | 0 mm | 1.34 m/s, 158° | - | - |
| 1778015788 | 12.22° C | 86% | 1008.4 hPa | 0 mm | 0.89 m/s, 244° | - | - |
| 1778015187 | 12.22° C | 85% | 1008.5 hPa | 0 mm | 0 m/s | - | - |
| 1778014587 | 12.78° C | 85% | 1008.3 hPa | 0 mm | 0.89 m/s, 266° | - | - |
| 1778013987 | 12.78° C | 85% | 1008.3 hPa | 0 mm | 0.89 m/s, 249° | - | - |
| 1778013387 | 12.78° C | 84% | 1008.3 hPa | 0 mm | 0.89 m/s, 227° | - | - |
| 1778012787 | 13.33° C | 83% | 1008.3 hPa | 0 mm | 1.34 m/s, 227° | - | - |
| 1778012187 | 13.33° C | 83% | 1008.4 hPa | 0 mm | 0.89 m/s, 185° | - | - |
| 1778011587 | 13.33° C | 82% | 1008.4 hPa | 0 mm | 1.79 m/s, 199° | - | - |
| 1778010987 | 13.89° C | 82% | 1008.3 hPa | 0 mm | 1.34 m/s, 237° | - | - |
| 1778010387 | 13.89° C | 80% | 1008.3 hPa | 0 mm | 1.79 m/s, 184° | - | - |
| 1778009787 | 14.44° C | 77% | 1008.3 hPa | 0 mm | 1.79 m/s, 191° | - | - |
* Rain latest hour (hover to see other rain measurements)
** Current wind speed in m/s (hover to see current wind gust speed)